Regional Weather Roundup
Issued by NWS Pendleton, OR

Home | Current Version | Previous Version | Text Only | Print | Product List | Glossary On
Versions: 1 2 3 4 5 6 7 8 9 10 11 12 13 14 15 16 17 18 19 20 21 22 23 24 25 26 27 28 29 30 31 32 33 34 35 36 37 38 39 40 41 42 43 44 45 46 47 48 49 50
000
ASUS46 KPDT 301810
RWRPDT
PENDLETON REGIONAL WEATHER ROUNDUP
NATIONAL WEATHER SERVICE PENDLETON OREGON
1100 AM PDT TUE SEP 30 2014

NOTE: FAIR INDICATES FEW OR NO CLOUDS BELOW 12,000 FEET WITH NO
SIGNIFICANT WEATHER AND/OR OBSTRUCTIONS TO VISIBILITY.

# INDICATES UNOFFICIAL STATION AND DATA

WAZ520-301910-
EAST SLOPES OF WASHINGTON CASCADES

CITY            SKY/WX      TMP DP  RH  WIND    PRES   REMARKS
#BUMPING DAM    N/A         49  N/A N/A S5      N/A
#CLE ELUM HS    N/A         54  42  64  W7      29.97R
#CLE ELUM 2NW   N/A         54  41  61  SW5     N/A
#CLE ELUM LAKE  N/A         53  39  59  CALM    29.94R
#CLIFFDEL 2NW   N/A         50  41  71  N7      N/A
#EASTON DOT     N/A         49  46  89  N2      N/A
#GLENWOOD       N/A         60  44  55  SW7     29.97F
#MANASTASH CYN  N/A         54  38  55  NE2     29.98R
#NELSON         N/A         55  44  66  NW2     29.98R
#NELSON 3SW     N/A         51  41  68  CALM    30.17R
#NILE           N/A         56  41  57  E1      29.22R
#PEOH POINT     N/A         44  38  79  W7G24   N/A
#RONALD 2NW     N/A         54  42  64  W3      29.89R
#SNOWDEN        N/A         58  34  40  NW7     N/A
#SOUTH BLEWITT  N/A         54  38  55  CALM    N/A
#TEANAWAY 4NE   N/A         59  44  57  CALM    N/A
#TROUT LAKE 1NE N/A         55  46  72  NW12    30.04R
$$

WAZ521-301910-
SIMCOE HIGHLANDS

CITY            SKY/WX      TMP DP  RH  WIND    PRES   REMARKS
#BICKLETON HS   N/A         56  30  37  W10     30.09S
#SATUS PASS DOT N/A         53  35  50  CALM    N/A
#CENTERVILLE 4W N/A         59  46  62  NW12    29.79R
#CENTERVILLE 1SWN/A         58  44  60  W16     29.98S
#GOLDENDALE     N/A         59  43  55  W9      N/A
#GOLDENDALE 1NE N/A         58  37  45  SW3     N/A
#GOLDENDALE 1S  N/A         59  46  62  W12     30.01R
#GOLDENDALE 5WNWN/A         60  44  55  W17     29.99R
#GOODNOE HILLS  N/A         63  45  52  W26     29.95F
#LYLE 6NE       N/A         57  46  67  S15     29.99S
$$

WAZ026-301910-
KITTITAS VALLEY

CITY            SKY/WX      TMP DP  RH  WIND    PRES   REMARKS
ELLENSBURG AP   SUNNY       62  41  46  W32G41  30.00R
6HR MIN TEMP:   53; 6HR MAX TEMP:   62;

#ELLENSBURG CWU N/A         58  42  55  N22     29.92S
#ELLENSBURG 3NE N/A         57  44  62  N15G32  29.98S
#ELLENSBURG     N/A         60  44  55  NW8     N/A
#KITTITAS 3S    N/A         59  45  60  W14     29.93S
#THORP 6N       N/A         53  42  66  W16G35  29.97R
$$

WAZ027-301910-
YAKIMA VALLEY

CITY            SKY/WX      TMP DP  RH  WIND    PRES   REMARKS
SUNNYSIDE AP    SUNNY       63  41  44  W6      30.00R
YAKIMA AIRPORT  PTCLDY      67  41  39  VRB5    29.99S
6HR MIN TEMP:   43; 6HR MAX TEMP:   67;

YAKIMA-VAGABOND SUNNY       63  38  39  W9      30.00S
#COWICHE 1N     N/A         58  42  55  CALM    30.15R
#DONALD 2NE     N/A         73  35  25  E2      30.32R
#GRANDVIEW      N/A         64  39  40  CALM    29.99S
#MABTON         N/A         64  43  46  NW2     29.99S
#MOXEE 2E       N/A         63  24  22  NW3     29.92S
#NACHES 2SW     N/A         62  42  48  SE1     29.99S
#TERRACE HTS    N/A         64  42  45  N1      29.93R
#TOPPENISH      N/A         64  42  45  SW2     29.90R
#WAPATO 4NE     N/A         73  35  25  E2      30.32R
#WEST VALLEY    N/A         64  42  45  W1      29.94S
#W YAKIMA       N/A         64  41  43  N2      29.96R
#WHITE SWAN 5E  N/A         65  44  46  CALM    29.98R
#WILEY CITY 3W  N/A         63  44  50  CALM    29.99R
$$

WAZ028-301910-
LOWER COLUMBIA BASIN...WASHINGTON

CITY            SKY/WX      TMP DP  RH  WIND    PRES   REMARKS
PASCO           SUNNY       68  41  37  W12     29.99R
6HR MIN TEMP:   51; 6HR MAX TEMP:   68;

PROSSER AWOS    N/A         66  43  43  W5      30.03R
RICHLAND AWOS   SUNNY       68  39  35  SW12    29.98S
#BASIN CITY 5SW N/A         66  45  47  NW18    29.97S
#BENTON CITY    N/A         63  41  44  W7      29.89R
#CONNELL 5N     N/A         63  44  50  SW9     29.93S
#CONNELL 5NW    N/A         63  47  56  W7      29.90S
#ELTOPIA        N/A         66  48  52  SW6     29.92S
#ELTOPIA 6NW    N/A         63  45  52  W12G24  28.94S
#KENNEWICK 3S   N/A         65  45  48  W3      29.98R
#PASCO-BROADMOORN/A         69  41  36  SW7     29.87R
#PATERSON       N/A         66  43  43  W10     29.97S
#PROSSER DOT    N/A         64  41  43  S2      N/A
#PROSSER        N/A         62  39  43  NW1     29.98R
#SAGEMOOR 2W    N/A         63  45  52  E10     29.82S
#TOUCHET 2S     N/A         64  46  52  SW15    29.96S
#WEST PASCO     N/A         67  48  50  CALM    29.98S
$$

WAZ029-301910-
FOOTHILLS OF THE BLUES...WASHINGTON

CITY            SKY/WX      TMP DP  RH  WIND    PRES   REMARKS
WALLA WALLA AP  CLOUDY      61  43  51  SW12    30.01S
6HR MIN TEMP:   54; 6HR MAX TEMP:   61;

#DAYTON SCHOOL  N/A         55  40  57  SW5     29.99R
#DELANEY DOT    N/A         58  46  64  S15     N/A
#LOWDEN 2SE     N/A         64  45  50  W15G25  29.96S
#PLEASANT VIEW 1N/A         58  50  75  S14     29.97S
#PRESCOTT       N/A         61  49  65  SW2     29.96S
#SUDBURY        N/A         66  N/A N/A W8      N/A
#WHITMAN COLLEGEN/A         60  45  58  S7      30.02S
#WAITSBURG 8N   N/A         59  35  40  S10     29.91S
#WALLA WALLA 5E N/A         61  44  53  W7      N/A
#WALLA WALLA U  N/A         63  46  54  SW3     29.97S
#WHITMAN MISSIONN/A         64  47  54  SW14    29.98S
$$

WAZ030-301910-
BLUE MOUNTAINS...WASHINGTON

CITY            SKY/WX      TMP DP  RH  WIND    PRES   REMARKS
$$

ORZ009-041-WAZ024-301910-
COLUMBIA RIVER GORGE

CITY            SKY/WX      TMP DP  RH  WIND    PRES   REMARKS
HOOD RIVER AP   SUNNY       63  48  58  W10G25  30.06S
THE DALLES AP   SUNNY       66  45  47  W21G37  30.03R
6HR MIN TEMP:   58; 6HR MAX TEMP:   66;

#ARLINGTON AIRPON/A         63  46  54  W18     29.97S
#ARLINGTON HS   N/A         66  45  47  N10     29.91S
#LYLE           N/A         62  50  65  W18G32  30.06
#MARYHILL       N/A         63  45  52  NW14    N/A
#MARYHILL 2W    N/A         62  48  60  W10     N/A
#MOSIER 1S      N/A         60  38  44  CALM    N/A
#MURDOCK        N/A         64  51  63  W25G36  30.05S
#RUFUS DOT      N/A         64  44  48  W6      N/A

$$

ORZ510-301910-
NORTH CENTRAL OREGON

CITY            SKY/WX      TMP DP  RH  WIND    PRES   REMARKS
#CHENOWITH 1W   N/A         56  44  64  NW31    N/A
#COW CYN RST AREN/A         55  40  57  W9      N/A
#DUFUR 9E       N/A         55  42  61  W20G32  30.09S
#GRASS VALLEY   N/A         56  42  59  NE1     N/A
#GRASS VALLEY 1SN/A         56  42  59  NW3     30.07R
#KENT DOT       N/A         55  36  49  W6      N/A
#MAUPIN SCHOOL  N/A         65  44  46  SW2     28.93S
#MORO SCHOOL    N/A         57  47  69  W14G25  30.06S
#SHANIKO 5WSW   N/A         51  34  52  W12     N/A
#SHANIKO 4NW    N/A         50  38  63  W8      30.08R
#TYGH VALLEY 2NEN/A         64  43  46  S2      30.02S
#WAPANITIA AIRPON/A         59  42  53  W15     30.03S
#WASCO 5NE      N/A         60  45  58  W9      30.01R
$$

ORZ511-301910-
CENTRAL OREGON

CITY            SKY/WX      TMP DP  RH  WIND    PRES   REMARKS
BEND AIRPORT    SUNNY       55  36  49  NW14    30.12S
MADRAS AIRPORT  SUNNY       57  37  47  NW7     30.11R
REDMOND AIRPORT SUNNY       58  36  44  NW14    30.10R
6HR MIN TEMP:   43; 6HR MAX TEMP:   58;

#BEND 6E        N/A         53  35  50  CALM    30.01S
#BEND 1SW       N/A         51  37  59  NE1     N/A
#BEND-KIM LN    N/A         55  40  57  CALM    30.08S
#CROOKED RVR RANN/A         58  39  49  NW3     30.03S
#CULVER         N/A         58  39  49  SW1     30.05S
#LAKE BILLY CHINN/A         61   2   9  CALM    30.13F
#POWELL BUTTE 3EN/A         54  43  66  W8      N/A
#POWELL BUTTE   N/A         57  42  57  NW6     29.73S
#PRINEVILLE 3N  N/A         54  42  64  CALM    30.02S
#WARM SPRINGS   N/A         63  42  46  SW7     30.05S


ORZ509-301910-
EAST SLOPES OF OREGON CASCADES

CITY            SKY/WX      TMP DP  RH  WIND    PRES   REMARKS
#BLUE BOX PASS  N/A         43  -6  12  SW2     N/A
#CAMP SHERMAN   N/A         60  40  47  N1      30.06F
#LA PINE DOT    N/A         55  33  43  W6      N/A
#LA PINE 4NW    N/A         49  37  63  CALM    30.07S
#LAVA BUTTE DOT N/A         49  32  52  CALM    N/A
#SISTERS AIRPOR N/A         54  45  71  N8      29.91S
#SISTERS ODOT   N/A         53  N/A N/A SE7     N/A
#SISTERS 3N     N/A         53  37  54  CALM    N/A
#SUNRIVER       N/A         53  39  59  S2      29.93R
#SUNRIVER AP    N/A         51  38  61  NW2     30.00S
#SUTTLE LK DOT  N/A         44  39  82  W35G48  N/A    WCI 33
#TUMALO 3W      N/A         54  37  52  W8      29.92R
#WANOGA BUTTE D N/A         44  32  62  NE1     N/A

$$

ORZ044-301910-
LOWER COLUMBIA BASIN...OREGON

CITY            SKY/WX      TMP DP  RH  WIND    PRES   REMARKS
HERMISTON       SUNNY       66  43  43  W13     30.00S
6HR MIN TEMP:   52; 6HR MAX TEMP:   66;

#BOARDMAN SCHOOLN/A         65  52  63  W15G24  29.97S
#BOARDMAN 3W    N/A         68  47  47  W12     29.71
#BOARDMAN 8SW   N/A         65  47  52  W14     29.99S
#ECHO 8SW       N/A         65  43  45  W13     29.98S
#IONE SCHOOL    N/A         62  42  48  SW15G25 30.01S
#IRRIGON 4NW    N/A         67  47  49  S15     N/A
#UMATILLA SCHOOLN/A         65  51  60  W12     30.00F
#UMATILLA       N/A         65  44  46  SW8     29.97F
$$

ORZ507-301910-
NORTHERN FOOTHILLS OF THE BLUES

CITY            SKY/WX      TMP DP  RH  WIND    PRES   REMARKS
PENDLETON AIRPT MOSUNNY     63  39  41  W20     30.02R
6HR MIN TEMP:   53; 6HR MAX TEMP:   63;

#ADAMS 3WNW     N/A         60  42  51  W14     29.97S
#ATHENA         N/A         59  42  53  W3      29.99F
#CAYUSE         N/A         58  44  60  W10     29.98S
#HELIX SCHOOL   N/A         58  43  57  W10     29.98R
#HELIX 3N       N/A         56  43  62  N17     29.99R
#HOLDMAN 5SE    N/A         61  43  51  W15     30.02S
#HOLDMAN 6E     N/A         58  43  57  NE12    29.80S
#M-F GROVE ELEM N/A         62  40  44  SW9     29.99S
#M-FREEWATER 5SEN/A         59  44  57  SW14    30.00S
#PENDLETON DNTN N/A         65  39  38  W3      28.82S
#PDT AQUATIC CTRN/A         62  42  48  W12     30.00S
#PENDLETON 5NE  N/A         61  43  51  CALM    29.98S
#PDT SUNRIDGE   N/A         63  42  46  W10     30.03S
#PENDLETON 7NW  N/A         61  45  56  W15G25  31.74S
#PILOT ROCK     N/A         59  39  47  W5      30.05R
#TUTUILLA       N/A         62  43  50  W15     30.00F
#UMAPINE 2E     N/A         64  47  54  SW9     29.96S

$$

ORZ508-301910-
SOUTHERN FOOTHILLS OF THE BLUES

CITY            SKY/WX      TMP DP  RH  WIND    PRES   REMARKS
LEXINGTON       MOCLDY      63  39  41  W16G25  30.06R
#AJAX           N/A         57  35  43  W14     30.00R
#CONDON SCHOOL  N/A         54  41  61  CALM    30.02S
#CONDON 5W      N/A         52  38  59  W17G29  30.04S
#FOSSIL SCHOOL  N/A         54  41  61  W7      30.04S
#HEPPNER EOC    N/A         58  41  53  W15G26  29.96R
#HEPPNER 4NE    N/A         54  40  59  W15G25  29.99R
#LEXINGTON 2SE  N/A         62  42  48  W9      30.00R
#MIKKALO        N/A         61  39  44  W22G31  30.03S
#OLEX 4N        N/A         61  44  53  SW24G36 30.02R
#RUGGS 5NE      N/A         56  39  53  W18G26  30.20S
#RUGGS 2SW      N/A         55  39  55  W15     30.02R

$$

ORZ502-503-301910-
BLUE MOUNTAINS

CITY            SKY/WX      TMP DP  RH  WIND    PRES   REMARKS
MEACHAM         MOCLDY      51  41  68  VRB5    30.03F
6HR MIN TEMP:   44; 6HR MAX TEMP:   52;

#BATTLE MTN DOT N/A         47  41  79  SW1     N/A
#HARDMAN 10S    N/A         49  37  63  W1      30.11S
#HEPPNER 15SE   N/A         49  40  71  NW6     29.96S
#LADD CYN SMT   N/A         52  32  46  W15     N/A
#LADD CREEK ODOTN/A         54  37  52  NE3     N/A
#LONG CREEK HS  N/A         49  42  77  NW8     30.03R
#N POWDER DOT   N/A         52  37  56  N9      N/A
#PIKES PEAK     N/A         48  40  74  SW26G33 27.99S WCI 40
#TOLLGATE       N/A         39  38  96  S2      29.95R
#TROY SCHOOL    N/A         57  45  64  SE6     29.83R
#UKIAH          N/A         52  39  61  NW7     29.99F
#WESTON 4E      N/A         49  40  71  SW9     29.92R
$$

ORZ505-301910-
JOHN DAY BASIN

CITY            SKY/WX      TMP DP  RH  WIND    PRES   REMARKS
JOHN DAY        CLOUDY      52  38  59  W9      30.09R
#JOHN DAY KJDY  N/A         56  40  55  W2      30.19F
#DAYVILLE SCHOOLN/A         59  35  40  NW7     30.03F
#MONUMENT HS    N/A         59  38  45  W8      30.06F
#MT. VERNON 5SE N/A         49  37  63  W3      30.03S
#WINLOCK        N/A         55  38  53  NE7     30.14S
$$

ORZ506-301910-
OCHOCO AND JOHN DAY HIGHLANDS

CITY            SKY/WX      TMP DP  RH  WIND    PRES   REMARKS
#BUCK CREEK DOT N/A         48  41  77  W12     N/A    WCI 43
#HORSE RIDGE DO N/A         51  34  52  NW8     N/A
#KEYES SMT DOT  N/A         49  -53  1  W8      N/A
#PAULINA SCHOOL N/A         52  35  52  NW2     30.09S
#PINE MTN OBS   N/A         40  34  79  NW6     N/A
#PRAIRIE CITY   N/A         49  40  71  W1      30.10F
#SENECA         N/A         49  N/A N/A W7      N/A
#SENECA 9NW     N/A         49  37  63  W1      29.95R
$$

ORZ049-301910-
GRANDE RONDE VALLEY

CITY            SKY/WX      TMP DP  RH  WIND    PRES   REMARKS
LA GRANDE       CLOUDY      55  34  45  N14     30.02S
#COVE           N/A         51  46  83  CALM    29.95S
#COVE SCHOOL    N/A         51  46  83  CALM    30.01S
#COVE 6NW       N/A         51  41  68  N6      30.03R
#ELGIN 3N       N/A         53  39  59  CALM    29.76R
#ELGIN 1E       N/A         53  41  64  CALM    N/A
#IMBLER SCHOOL  N/A         52  40  63  E5      29.99S
#LADD CYN DOT   N/A         54  37  52  N6      N/A
#LA GRANDE ELEM N/A         55  41  59  W7      30.00S
#UNION 1S       N/A         54  41  61  N3      29.90S
$$

ORZ050-301910-
WALLOWA COUNTY

CITY            SKY/WX      TMP DP  RH  WIND    PRES   REMARKS
#ENTERPRISE AP  N/A         48  34  58  NW14    29.96R WCI 42
#ENTERPRISE HS  N/A         50  39  66  NW6     30.02S
#IMNAHA SCHOOL  N/A         57  38  49  CALM    29.92F
#IMNAHA 10S     N/A         54  42  64  NE1     30.00F
#JOSEPH 3N      N/A         51  39  63  N10     30.03S
#JOSEPH 3W      N/A         47  35  63  N1      29.87R
#LOSTINE        N/A         52  39  61  NW1     29.78R
#MT HOWARD 8000 N/A         31  29  92  CALM    30.02R
#PROMISE 1S     N/A         47  41  79  NE2     30.09R
#SHEEP RDG 7000 N/A         32  29  89  CALM    29.98R
#WALLOWA SCHOOL N/A         51  41  68  W1      30.89R



$$



USA.gov is the U.S. government's official web portal to all federal, state and local government web resources and services.